Weather in Urzhum

Russia / Kirov Oblast     57°06′35″N   50°00′20″E
temp.,
°C
wind,
m/s
gust,
m/s
humid.,
%
clouds,
%
prec.,
mm/h
press.,
hPa
HPBL,
m
8 march, mon
mon800:00−8s71294100 0.8 997713
03:00−8sse71293100 1.4 994634
06:00−7sse61195100 0.6 991454
09:00−5ese3596100 1.9 990325
12:00−4w6995100 2.1 992671
15:00−5w81285100 2.7 995810
18:00−8wsw61385100 0.0 998429
21:00−11wsw5109279 0.0 1000188
9 march, tue
tue900:00−12wnw349784 0.0 100158
03:00−13wnw349691 0.1 100458
06:00−15nw349785 0.1 100649
09:00−15nnw349582 0.1 1008177
12:00−12nw238991 0.0 1009353
15:00−11nnw238996 0.1 1010447
18:00−13n359699 0.1 1011109
21:00−15n479699 0.2 1012196
10 march, wed
wed1000:00−18n599683 0.1 1013257
03:00−21n599790 0.1 1014240
06:00−24n5109699 0.1 1016263
09:00−25n699388 0.1 1017323
12:00−21n698811 0.0 1018448
15:00−19n69856 0.0 1018568
18:00−22nnw45920 0.0 101982
21:00−24nw47960 0.0 102190
11 march, thu
thu1100:00−24nw47980 0.0 102088
03:00−24wnw410970 0.0 1021147
06:00−21wnw5109775 0.1 1020297
09:00−18wnw589588 0.1 1020316
12:00−14wnw5993100 0.3 1020438
15:00−10wnw5890100 0.3 1020562
18:00−11wnw5109091 0.0 1021164
21:00−13nw5129079 0.0 1023204
12 march, fri
fri1200:00−15wnw410914 0.0 1025142
03:00−17wnw47922 0.0 1026105
06:00−18wnw45920 0.0 102878
09:00−14wnw47870 0.0 1029221
12:00−11w35880 0.0 1029270
15:00−9wsw46870 0.0 1028327
18:00−13sw33900 0.0 102821
21:00−14sw45950 0.0 102885